RYR9YG EPMO-LGAV

Flight info

Callsign RYR9YG
Flight time 2h 21m
Altitude 34000
Route EVINA M66 BABKO/N0462F330 DCT ULPUK/N0463F350 DCT LAHOR DCT PARAK DCT IRGOR DCT IBISI DCT KRATO DCT MAKED DCT SIGFO UM749 ROPOX
Aircraft B738/M-SDE2E3FGHIRWXY/LB1

Departure

Time 2026-05-08 16:17
Airport Warsaw Modlin Airport (EPMO)

Arrival

Time 2026-05-08 18:38
Airport Athens Eleftherios Venizelos International Airport (LGAV)
Time Latitude Longitude Altitude Speed Heading
2026-05-08 15:50 52.44755 20.65341 332 ft 0 kts 206°
2026-05-08 16:04 52.44756 20.65342 337 ft 2 kts 206°
2026-05-08 16:04 52.44771 20.65353 332 ft 2 kts 205°
2026-05-08 16:04 52.44786 20.65363 336 ft 2 kts 157°
2026-05-08 16:05 52.44797 20.65344 332 ft 2 kts 101°
2026-05-08 16:05 52.44798 20.65330 332 ft 0 kts 84°
2026-05-08 16:11 52.44801 20.65365 336 ft 10 kts 82°
2026-05-08 16:11 52.44816 20.65526 337 ft 15 kts 81°
2026-05-08 16:11 52.44830 20.65697 337 ft 15 kts 82°
2026-05-08 16:11 52.44845 20.65861 336 ft 14 kts 81°
2026-05-08 16:12 52.44861 20.66017 337 ft 14 kts 80°
2026-05-08 16:12 52.44875 20.66180 336 ft 19 kts 82°
2026-05-08 16:12 52.44900 20.66448 337 ft 25 kts 81°
2026-05-08 16:12 52.44927 20.66726 335 ft 24 kts 81°
2026-05-08 16:13 52.44949 20.66962 337 ft 14 kts 81°
2026-05-08 16:13 52.45002 20.67078 336 ft 14 kts
2026-05-08 16:13 52.45112 20.67054 334 ft 19 kts 351°
2026-05-08 16:13 52.45195 20.67029 335 ft 0 kts 342°
2026-05-08 16:16 52.45233 20.67008 335 ft 15 kts 340°
2026-05-08 16:16 52.45273 20.66793 335 ft 33 kts 261°
2026-05-08 16:16 52.45203 20.66049 338 ft 99 kts 261°
2026-05-08 16:16 52.45069 20.64595 337 ft 157 kts 263°
2026-05-08 16:17 52.44884 20.62648 675 ft 176 kts 264°
2026-05-08 16:17 52.44765 20.61392 1411 ft 166 kts 263°
2026-05-08 16:17 52.44510 20.58790 2226 ft 182 kts 264°
2026-05-08 16:17 52.44273 20.56604 2721 ft 199 kts 262°
2026-05-08 16:18 52.44361 20.54387 3380 ft 195 kts 298°
2026-05-08 16:18 52.45002 20.52367 3692 ft 214 kts 284°
2026-05-08 16:18 52.44798 20.49890 4002 ft 232 kts 241°
2026-05-08 16:18 52.43565 20.48180 4567 ft 240 kts 201°
2026-05-08 16:19 52.41896 20.48103 5153 ft 248 kts 164°
2026-05-08 16:19 52.40240 20.48895 5694 ft 250 kts 179°
2026-05-08 16:19 52.38496 20.48724 6163 ft 258 kts 187°
2026-05-08 16:19 52.36654 20.48436 6618 ft 271 kts 190°
2026-05-08 16:20 52.34790 20.47837 7350 ft 273 kts 195°
2026-05-08 16:20 52.32944 20.47095 8190 ft 274 kts 197°
2026-05-08 16:20 52.31082 20.46321 8959 ft 278 kts 197°
2026-05-08 16:20 52.29188 20.45538 9743 ft 282 kts 197°
2026-05-08 16:21 52.27274 20.44757 10450 ft 287 kts 196°
2026-05-08 16:21 52.25269 20.43944 10695 ft 309 kts 196°
2026-05-08 16:21 52.23102 20.43074 10881 ft 332 kts 196°
2026-05-08 16:21 52.20786 20.42154 11050 ft 353 kts 195°
2026-05-08 16:22 52.19174 20.41519 11152 ft 367 kts 195°
2026-05-08 16:22 52.16640 20.40527 11481 ft 380 kts 195°
2026-05-08 16:22 52.13199 20.39191 12305 ft 385 kts 195°
2026-05-08 16:22 52.10580 20.38179 12987 ft 388 kts 195°
2026-05-08 16:23 52.08795 20.37490 13427 ft 391 kts 195°
2026-05-08 16:23 52.06132 20.36463 14050 ft 395 kts 195°
2026-05-08 16:23 52.03484 20.35443 14618 ft 398 kts 196°
2026-05-08 16:23 52.00781 20.34402 15213 ft 400 kts 196°
2026-05-08 16:24 51.98058 20.33355 15796 ft 403 kts 196°
2026-05-08 16:24 51.95316 20.32301 16369 ft 406 kts 196°
2026-05-08 16:24 51.92556 20.31242 16948 ft 408 kts 196°
2026-05-08 16:24 51.89778 20.30176 17482 ft 412 kts 196°
2026-05-08 16:25 51.86972 20.29100 18018 ft 416 kts 196°
2026-05-08 16:25 51.84150 20.28021 18536 ft 419 kts 197°
2026-05-08 16:25 51.81303 20.26934 19002 ft 421 kts 196°
2026-05-08 16:25 51.78445 20.25845 19471 ft 424 kts 196°
2026-05-08 16:26 51.75560 20.24746 19937 ft 426 kts 196°
2026-05-08 16:26 51.72666 20.23645 20392 ft 429 kts 196°
2026-05-08 16:26 51.69750 20.22537 20838 ft 432 kts 196°
2026-05-08 16:26 51.66815 20.21424 21273 ft 434 kts 196°
2026-05-08 16:27 51.63864 20.20305 21686 ft 437 kts 196°
2026-05-08 16:27 51.60897 20.19182 22118 ft 439 kts 196°
2026-05-08 16:27 51.57914 20.18056 22535 ft 442 kts 196°
2026-05-08 16:27 51.54914 20.16923 22935 ft 444 kts 196°
2026-05-08 16:28 51.51892 20.15784 23327 ft 447 kts 196°
2026-05-08 16:28 51.48856 20.14642 23720 ft 449 kts 196°
2026-05-08 16:28 51.45815 20.13499 24069 ft 450 kts 196°
2026-05-08 16:28 51.42790 20.12364 24381 ft 452 kts 196°
2026-05-08 16:29 51.39708 20.11208 24683 ft 455 kts 196°
2026-05-08 16:29 51.36622 20.10053 24982 ft 457 kts 196°
2026-05-08 16:29 51.33509 20.08889 25276 ft 459 kts 196°
2026-05-08 16:29 51.30391 20.07725 25566 ft 461 kts 197°
2026-05-08 16:30 51.27261 20.06559 25853 ft 463 kts 197°
2026-05-08 16:30 51.24120 20.05390 26158 ft 464 kts 197°
2026-05-08 16:30 51.20972 20.04220 26468 ft 465 kts 197°
2026-05-08 16:30 51.17822 20.03051 26793 ft 465 kts 197°
2026-05-08 16:31 51.14667 20.01883 27186 ft 464 kts 197°
2026-05-08 16:31 51.11565 20.00736 27614 ft 462 kts 197°
2026-05-08 16:31 51.08434 19.99580 28034 ft 461 kts 197°
2026-05-08 16:31 51.05303 19.98425 28412 ft 460 kts 197°
2026-05-08 16:32 51.02179 19.97273 28780 ft 460 kts 197°
2026-05-08 16:32 50.99071 19.96130 29236 ft 457 kts 197°
2026-05-08 16:32 50.95967 19.94990 29661 ft 456 kts 198°
2026-05-08 16:32 50.92873 19.93854 30043 ft 455 kts 198°
2026-05-08 16:33 50.89822 19.92735 30368 ft 455 kts 198°
2026-05-08 16:33 50.86741 19.91606 30685 ft 454 kts 198°
2026-05-08 16:33 50.83664 19.90481 30995 ft 454 kts 198°
2026-05-08 16:33 50.80585 19.89357 31270 ft 453 kts 198°
2026-05-08 16:34 50.77514 19.88237 31601 ft 452 kts 198°
2026-05-08 16:34 50.74456 19.87124 31928 ft 451 kts 198°
2026-05-08 16:34 50.71400 19.86013 32219 ft 451 kts 198°
2026-05-08 16:34 50.68342 19.84902 32499 ft 450 kts 198°
2026-05-08 16:35 50.65294 19.83796 32797 ft 450 kts 198°
2026-05-08 16:35 50.62241 19.82691 33107 ft 449 kts 198°
2026-05-08 16:35 50.59201 19.81591 33393 ft 448 kts 198°
2026-05-08 16:35 50.56155 19.80491 33680 ft 447 kts 198°
2026-05-08 16:36 50.53131 19.79402 34064 ft 444 kts 198°
2026-05-08 16:36 50.50145 19.78325 34112 ft 447 kts 198°
2026-05-08 16:36 50.44073 19.76140 34121 ft 446 kts 198°
2026-05-08 16:37 50.38030 19.73975 34124 ft 443 kts 198°
2026-05-08 16:37 50.32028 19.71829 34113 ft 440 kts 198°
2026-05-08 16:38 50.26063 19.69701 34107 ft 438 kts 198°
2026-05-08 16:38 50.20158 19.67598 34125 ft 437 kts 198°
2026-05-08 16:39 50.14215 19.65487 34129 ft 438 kts 198°
2026-05-08 16:39 50.08260 19.63377 34120 ft 438 kts 198°
2026-05-08 16:40 50.02296 19.61272 34124 ft 439 kts 198°
2026-05-08 16:40 49.96323 19.59168 34129 ft 441 kts 197°
2026-05-08 16:41 49.90336 19.57063 34119 ft 442 kts 197°
2026-05-08 16:42 49.81373 19.53924 34120 ft 441 kts 198°
2026-05-08 16:42 49.75389 19.51836 34110 ft 440 kts 198°
2026-05-08 16:43 49.69416 19.49755 34106 ft 439 kts 198°
2026-05-08 16:43 49.63456 19.47722 34110 ft 439 kts 196°
2026-05-08 16:44 49.57279 19.47469 34106 ft 453 kts 180°
2026-05-08 16:44 49.51028 19.48735 34110 ft 453 kts 179°
2026-05-08 16:45 49.44787 19.49976 34103 ft 451 kts 180°
2026-05-08 16:45 49.38569 19.51160 34101 ft 449 kts 180°
2026-05-08 16:46 49.32377 19.52316 34106 ft 447 kts 180°
2026-05-08 16:46 49.26237 19.53456 34097 ft 447 kts 180°
2026-05-08 16:47 49.20036 19.54606 34058 ft 449 kts 181°
2026-05-08 16:47 49.13824 19.55757 34084 ft 450 kts 181°
2026-05-08 16:48 49.07603 19.56907 34075 ft 450 kts 181°
2026-05-08 16:48 49.01379 19.58056 34085 ft 451 kts 181°
2026-05-08 16:49 48.95148 19.59205 34050 ft 450 kts 181°
2026-05-08 16:49 48.88950 19.60346 34067 ft 451 kts 181°
2026-05-08 16:50 48.82702 19.61485 34035 ft 452 kts 181°
2026-05-08 16:50 48.76452 19.62617 34038 ft 451 kts 182°
2026-05-08 16:51 48.70222 19.63376 34026 ft 447 kts 184°
2026-05-08 16:51 48.64017 19.63979 34033 ft 446 kts 184°
2026-05-08 16:52 48.57821 19.64626 34034 ft 446 kts 183°
2026-05-08 16:52 48.51671 19.65298 34022 ft 445 kts 183°
2026-05-08 16:53 48.42448 19.66326 34023 ft 441 kts 183°
2026-05-08 16:53 48.36338 19.67001 34021 ft 439 kts 183°
2026-05-08 16:54 48.30247 19.67672 34017 ft 438 kts 183°
2026-05-08 16:54 48.24165 19.68339 33997 ft 437 kts 183°
2026-05-08 16:55 48.18101 19.69004 34015 ft 437 kts 183°
2026-05-08 16:55 48.12065 19.69663 34023 ft 438 kts 183°
2026-05-08 16:56 48.05968 19.70327 34030 ft 439 kts 183°
2026-05-08 16:56 47.99856 19.70993 34010 ft 441 kts 182°
2026-05-08 16:57 47.93726 19.71659 34028 ft 442 kts 182°
2026-05-08 16:57 47.87614 19.72322 34029 ft 444 kts 182°
2026-05-08 16:58 47.81442 19.73104 34017 ft 448 kts 179°
2026-05-08 16:58 47.75254 19.74472 34009 ft 449 kts 177°
2026-05-08 16:59 47.69080 19.75939 34028 ft 449 kts 177°
2026-05-08 16:59 47.62893 19.77372 34020 ft 449 kts 178°
2026-05-08 17:00 47.56751 19.78761 33995 ft 449 kts 177°
2026-05-08 17:00 47.50593 19.80141 34011 ft 447 kts 177°
2026-05-08 17:01 47.44446 19.81512 34021 ft 446 kts 177°
2026-05-08 17:01 47.38311 19.82878 34024 ft 445 kts 177°
2026-05-08 17:02 47.32177 19.84241 34011 ft 445 kts 177°
2026-05-08 17:02 47.26052 19.85600 34024 ft 444 kts 177°
2026-05-08 17:03 47.19995 19.86941 34019 ft 443 kts 177°
2026-05-08 17:03 47.13879 19.88290 34009 ft 443 kts 177°
2026-05-08 17:04 47.07780 19.89634 34022 ft 443 kts 177°
2026-05-08 17:04 47.01688 19.90973 34017 ft 442 kts 177°
2026-05-08 17:05 46.95604 19.92307 34021 ft 441 kts 177°
2026-05-08 17:05 46.90151 19.93499 34020 ft 442 kts 177°
2026-05-08 17:06 46.85073 19.94607 34019 ft 444 kts 177°
2026-05-08 17:06 46.77934 19.96161 34016 ft 447 kts 177°
2026-05-08 17:07 46.72766 19.97284 34023 ft 448 kts 177°
2026-05-08 17:07 46.66625 19.98617 34021 ft 449 kts 177°
2026-05-08 17:08 46.60446 19.99956 34017 ft 448 kts 177°
2026-05-08 17:08 46.54282 20.01287 34024 ft 447 kts 177°
2026-05-08 17:09 46.48130 20.02613 34017 ft 446 kts 177°
2026-05-08 17:09 46.41986 20.03933 34010 ft 445 kts 176°
2026-05-08 17:10 46.35861 20.05247 34020 ft 444 kts 176°
2026-05-08 17:10 46.29791 20.06545 34021 ft 443 kts 176°
2026-05-08 17:11 46.23683 20.07849 34020 ft 443 kts 176°
2026-05-08 17:11 46.17593 20.09150 34010 ft 442 kts 175°
2026-05-08 17:12 46.11624 20.11519 34020 ft 448 kts 166°
2026-05-08 17:12 46.05725 20.14482 34018 ft 448 kts 166°
2026-05-08 17:13 45.99867 20.17398 34015 ft 448 kts 166°
2026-05-08 17:13 45.93958 20.20279 34009 ft 448 kts 166°
2026-05-08 17:14 45.88041 20.23134 34014 ft 449 kts 166°
2026-05-08 17:14 45.82117 20.25982 34008 ft 449 kts 166°
2026-05-08 17:15 45.76179 20.28831 34002 ft 450 kts 166°
2026-05-08 17:15 45.70238 20.31640 34202 ft 446 kts 166°
2026-05-08 17:16 45.67275 20.33042 34079 ft 450 kts 166°
2026-05-08 17:16 45.64281 20.34480 34048 ft 452 kts 166°
2026-05-08 17:16 45.58306 20.37357 34019 ft 454 kts 165°
2026-05-08 17:17 45.52352 20.40205 33994 ft 454 kts 165°
2026-05-08 17:17 45.46351 20.43057 34003 ft 454 kts 165°
2026-05-08 17:18 45.40350 20.45900 34001 ft 454 kts 165°
2026-05-08 17:18 45.34346 20.48737 34002 ft 454 kts 165°
2026-05-08 17:19 45.28360 20.51559 33987 ft 453 kts 165°
2026-05-08 17:19 45.22378 20.54375 33997 ft 452 kts 165°
2026-05-08 17:20 45.16399 20.57182 34001 ft 452 kts 165°
2026-05-08 17:20 45.10463 20.59963 33999 ft 452 kts 165°
2026-05-08 17:21 45.04502 20.62749 33991 ft 451 kts 165°
2026-05-08 17:21 44.98535 20.65532 33998 ft 451 kts 165°
2026-05-08 17:22 44.92571 20.68308 33992 ft 451 kts 164°
2026-05-08 17:22 44.86607 20.71078 33998 ft 451 kts 164°
2026-05-08 17:23 44.80641 20.73843 33998 ft 452 kts 164°
2026-05-08 17:23 44.74666 20.76607 33997 ft 452 kts 164°
2026-05-08 17:24 44.68707 20.79464 33993 ft 453 kts 162°
2026-05-08 17:24 44.62849 20.82595 33980 ft 453 kts 161°
2026-05-08 17:25 44.56969 20.85771 33991 ft 452 kts 161°
2026-05-08 17:25 44.51095 20.88897 33990 ft 450 kts 161°
2026-05-08 17:26 44.45232 20.91985 33994 ft 450 kts 161°
2026-05-08 17:26 44.39369 20.95059 33992 ft 449 kts 161°
2026-05-08 17:27 44.33546 20.98106 33994 ft 449 kts 161°
2026-05-08 17:27 44.27686 21.01167 33997 ft 448 kts 161°
2026-05-08 17:28 44.21839 21.04215 34005 ft 449 kts 161°
2026-05-08 17:28 44.15973 21.07266 34003 ft 450 kts 161°
2026-05-08 17:29 44.10129 21.10300 34011 ft 451 kts 161°
2026-05-08 17:29 44.04223 21.13359 34008 ft 452 kts 161°
2026-05-08 17:30 43.98348 21.16396 34015 ft 453 kts 161°
2026-05-08 17:30 43.92394 21.19468 34015 ft 454 kts 161°
2026-05-08 17:31 43.86501 21.22501 34018 ft 455 kts 161°
2026-05-08 17:31 43.80558 21.25553 34019 ft 456 kts 161°
2026-05-08 17:32 43.74595 21.28610 34020 ft 456 kts 161°
2026-05-08 17:32 43.68642 21.31654 34023 ft 456 kts 161°
2026-05-08 17:33 43.62677 21.34699 34026 ft 457 kts 161°
2026-05-08 17:33 43.56713 21.37736 34024 ft 457 kts 161°
2026-05-08 17:34 43.50743 21.40770 34022 ft 457 kts 161°
2026-05-08 17:34 43.44812 21.43778 34028 ft 457 kts 161°
2026-05-08 17:35 43.38830 21.46805 34021 ft 457 kts 161°
2026-05-08 17:35 43.32856 21.49822 34034 ft 457 kts 161°
2026-05-08 17:36 43.26902 21.52823 34034 ft 458 kts 161°
2026-05-08 17:36 43.20909 21.55837 34039 ft 459 kts 161°
2026-05-08 17:37 43.14901 21.58852 34028 ft 459 kts 161°
2026-05-08 17:37 43.08896 21.61860 34034 ft 460 kts 161°
2026-05-08 17:38 43.02878 21.64868 34035 ft 460 kts 161°
2026-05-08 17:38 42.96854 21.67873 34041 ft 461 kts 161°
2026-05-08 17:39 42.90824 21.70720 34040 ft 461 kts 163°
2026-05-08 17:39 42.84707 21.73375 34040 ft 461 kts 164°
2026-05-08 17:40 42.78599 21.76024 34043 ft 461 kts 164°
2026-05-08 17:40 42.72494 21.78702 34042 ft 461 kts 164°
2026-05-08 17:41 42.66383 21.81391 34023 ft 462 kts 163°
2026-05-08 17:41 42.60297 21.84067 34038 ft 462 kts 163°
2026-05-08 17:42 42.54157 21.86759 34033 ft 463 kts 163°
2026-05-08 17:42 42.48031 21.89440 34033 ft 463 kts 163°
2026-05-08 17:43 42.41883 21.92123 34035 ft 464 kts 163°
2026-05-08 17:43 42.35766 21.94789 34033 ft 464 kts 163°
2026-05-08 17:44 42.29614 21.97463 34040 ft 464 kts 163°
2026-05-08 17:44 42.23443 22.00141 34038 ft 464 kts 163°
2026-05-08 17:45 42.17326 22.02790 34033 ft 463 kts 163°
2026-05-08 17:45 42.11184 22.05445 34040 ft 462 kts 163°
2026-05-08 17:46 42.05050 22.08091 34036 ft 462 kts 163°
2026-05-08 17:46 41.98991 22.10886 34035 ft 462 kts 161°
2026-05-08 17:47 41.92951 22.13833 34047 ft 460 kts 161°
2026-05-08 17:47 41.87951 22.16261 34034 ft 459 kts 161°
2026-05-08 17:48 41.80937 22.19621 34030 ft 458 kts 161°
2026-05-08 17:48 41.74938 22.22477 34050 ft 457 kts 161°
2026-05-08 17:49 41.68929 22.25331 34044 ft 458 kts 161°
2026-05-08 17:49 41.62946 22.28169 34048 ft 459 kts 161°
2026-05-08 17:50 41.56913 22.31025 34037 ft 460 kts 162°
2026-05-08 17:50 41.50850 22.33890 34062 ft 462 kts 162°
2026-05-08 17:51 41.44770 22.36758 34052 ft 464 kts 162°
2026-05-08 17:51 41.38665 22.39632 34054 ft 466 kts 162°
2026-05-08 17:52 41.32578 22.42490 34062 ft 467 kts 162°
2026-05-08 17:53 41.23383 22.46801 34064 ft 467 kts 162°
2026-05-08 17:53 41.17255 22.49667 34049 ft 467 kts 162°
2026-05-08 17:54 41.12156 22.52049 34059 ft 467 kts 162°
2026-05-08 17:54 41.06104 22.55193 34068 ft 467 kts 159°
2026-05-08 17:55 41.00088 22.58493 34056 ft 468 kts 159°
2026-05-08 17:55 40.94066 22.61767 34051 ft 467 kts 160°
2026-05-08 17:56 40.88030 22.65003 34052 ft 467 kts 160°
2026-05-08 17:56 40.81993 22.68215 34062 ft 468 kts 160°
2026-05-08 17:57 40.75974 22.71410 34062 ft 469 kts 160°
2026-05-08 17:57 40.69914 22.74622 34041 ft 470 kts 161°
2026-05-08 17:58 40.63840 22.77836 34054 ft 470 kts 161°
2026-05-08 17:58 40.57787 22.81032 34051 ft 472 kts 161°
2026-05-08 17:59 40.51678 22.84251 34053 ft 474 kts 161°
2026-05-08 17:59 40.45544 22.87478 34054 ft 475 kts 161°
2026-05-08 18:00 40.39396 22.90706 34045 ft 476 kts 161°
2026-05-08 18:00 40.30177 22.95535 34055 ft 476 kts 161°
2026-05-08 18:01 40.24010 22.98756 34041 ft 477 kts 161°
2026-05-08 18:01 40.17839 23.01974 34059 ft 477 kts 161°
2026-05-08 18:02 40.11668 23.05185 34055 ft 478 kts 161°
2026-05-08 18:02 40.05477 23.08400 34058 ft 478 kts 162°
2026-05-08 18:03 39.99281 23.11612 34050 ft 479 kts 163°
2026-05-08 18:03 39.93108 23.14805 34056 ft 480 kts 163°
2026-05-08 18:04 39.86873 23.18024 34059 ft 481 kts 163°
2026-05-08 18:04 39.80634 23.21239 34055 ft 483 kts 163°
2026-05-08 18:05 39.74377 23.24458 34053 ft 483 kts 164°
2026-05-08 18:05 39.68149 23.27655 34053 ft 484 kts 164°
2026-05-08 18:06 39.61864 23.30874 34049 ft 485 kts 164°
2026-05-08 18:06 39.55610 23.34073 34023 ft 486 kts 164°
2026-05-08 18:07 39.49315 23.37285 34042 ft 486 kts 165°
2026-05-08 18:07 39.43014 23.40493 34046 ft 487 kts 165°
2026-05-08 18:08 39.36707 23.43697 34033 ft 487 kts 165°
2026-05-08 18:08 39.30403 23.46896 34009 ft 486 kts 166°
2026-05-08 18:09 39.24111 23.50085 34016 ft 486 kts 166°
2026-05-08 18:09 39.17816 23.53267 34021 ft 485 kts 166°
2026-05-08 18:10 39.11556 23.56424 34020 ft 486 kts 166°
2026-05-08 18:10 39.05261 23.59596 34022 ft 485 kts 167°
2026-05-08 18:11 38.98961 23.62761 34024 ft 485 kts 167°
2026-05-08 18:11 38.93555 23.65196 34023 ft 475 kts 176°
2026-05-08 18:12 38.87151 23.66297 33917 ft 468 kts 184°
2026-05-08 18:12 38.83896 23.66719 33566 ft 469 kts 184°
2026-05-08 18:12 38.80658 23.67152 33296 ft 466 kts 184°
2026-05-08 18:13 38.77432 23.67600 33034 ft 465 kts 183°
2026-05-08 18:13 38.74208 23.68055 32708 ft 468 kts 183°
2026-05-08 18:13 38.70954 23.68517 32270 ft 472 kts 183°
2026-05-08 18:13 38.67677 23.68991 31854 ft 475 kts 183°
2026-05-08 18:14 38.64389 23.69473 31379 ft 476 kts 182°
2026-05-08 18:14 38.61136 23.69953 30974 ft 477 kts 182°
2026-05-08 18:14 38.57831 23.70441 30570 ft 478 kts 182°
2026-05-08 18:14 38.54525 23.70929 30164 ft 478 kts 182°
2026-05-08 18:15 38.51214 23.71415 29710 ft 478 kts 182°
2026-05-08 18:15 38.47906 23.71900 29233 ft 478 kts 182°
2026-05-08 18:15 38.44607 23.72383 28793 ft 477 kts 182°
2026-05-08 18:15 38.41305 23.72865 28308 ft 477 kts 181°
2026-05-08 18:16 38.38003 23.73336 27864 ft 476 kts 182°
2026-05-08 18:16 38.34696 23.73879 27425 ft 482 kts 178°
2026-05-08 18:16 38.31390 23.74660 27007 ft 484 kts 178°
2026-05-08 18:16 38.28102 23.75355 26584 ft 484 kts 178°
2026-05-08 18:17 38.24760 23.76011 26166 ft 483 kts 179°
2026-05-08 18:17 38.21469 23.76673 25468 ft 480 kts 175°
2026-05-08 18:17 38.18260 23.78046 24669 ft 495 kts 159°
2026-05-08 18:17 38.15328 23.80414 23908 ft 502 kts 149°
2026-05-08 18:18 38.12588 23.83151 23213 ft 499 kts 146°
2026-05-08 18:18 38.09924 23.85946 22538 ft 494 kts 145°
2026-05-08 18:18 38.07265 23.88653 21899 ft 485 kts 148°
2026-05-08 18:18 38.04575 23.91195 21326 ft 477 kts 149°
2026-05-08 18:19 38.01960 23.93697 21158 ft 463 kts 146°
2026-05-08 18:19 37.99600 23.96427 20791 ft 458 kts 140°
2026-05-08 18:19 37.97474 23.99454 20090 ft 462 kts 133°
2026-05-08 18:19 37.95619 24.02730 19314 ft 467 kts 127°
2026-05-08 18:20 37.93975 24.06335 18103 ft 475 kts 120°
2026-05-08 18:20 37.92633 24.10155 16801 ft 475 kts 113°
2026-05-08 18:20 37.91654 24.14110 16163 ft 460 kts 105°
2026-05-08 18:20 37.91078 24.17967 15983 ft 434 kts 98°
2026-05-08 18:21 37.90843 24.21733 15396 ft 423 kts 91°
2026-05-08 18:21 37.90973 24.25372 15191 ft 406 kts 83°
2026-05-08 18:21 37.91446 24.28882 15119 ft 404 kts 76°
2026-05-08 18:21 37.92258 24.32302 15067 ft 403 kts 68°
2026-05-08 18:22 37.93383 24.35536 15016 ft 400 kts 60°
2026-05-08 18:22 37.94756 24.38590 14874 ft 400 kts 56°
2026-05-08 18:22 37.96201 24.41583 14429 ft 394 kts 55°
2026-05-08 18:22 37.97633 24.44505 14030 ft 386 kts 55°
2026-05-08 18:23 37.99044 24.47373 13565 ft 383 kts 55°
2026-05-08 18:23 38.00465 24.50226 13144 ft 381 kts 53°
2026-05-08 18:23 38.02059 24.52870 13029 ft 382 kts 45°
2026-05-08 18:23 38.03904 24.55263 12541 ft 376 kts 39°
2026-05-08 18:24 38.05866 24.57434 12047 ft 370 kts 36°
2026-05-08 18:24 38.07823 24.59511 11555 ft 362 kts 33°
2026-05-08 18:24 38.09893 24.61281 11068 ft 355 kts 25°
2026-05-08 18:24 38.12091 24.62645 10592 ft 348 kts 17°
2026-05-08 18:25 38.14375 24.63584 10121 ft 342 kts
2026-05-08 18:25 38.16694 24.64035 9610 ft 333 kts 354°
2026-05-08 18:25 38.18870 24.63343 9079 ft 318 kts 326°
2026-05-08 18:25 38.20443 24.61483 8581 ft 307 kts 298°
2026-05-08 18:26 38.21133 24.59000 8150 ft 302 kts 279°
2026-05-08 18:26 38.21414 24.56340 8046 ft 304 kts 272°
2026-05-08 18:26 38.21188 24.53688 8000 ft 297 kts 258°
2026-05-08 18:26 38.20694 24.51223 7980 ft 277 kts 256°
2026-05-08 18:27 38.20197 24.48985 7992 ft 249 kts 255°
2026-05-08 18:27 38.19891 24.47633 7980 ft 231 kts 255°
2026-05-08 18:27 38.19334 24.45208 7969 ft 197 kts 255°
2026-05-08 18:27 38.18968 24.43646 7973 ft 171 kts 255°
2026-05-08 18:28 38.18638 24.42263 7987 ft 166 kts 255°
2026-05-08 18:28 38.18301 24.40861 7980 ft 165 kts 255°
2026-05-08 18:28 38.17967 24.39474 7984 ft 163 kts 255°
2026-05-08 18:28 38.17637 24.38096 7998 ft 162 kts 255°
2026-05-08 18:29 38.17309 24.36733 7986 ft 161 kts 253°
2026-05-08 18:29 38.16953 24.35380 7989 ft 160 kts 253°
2026-05-08 18:29 38.16596 24.34040 7991 ft 160 kts 253°
2026-05-08 18:29 38.16241 24.32689 7983 ft 166 kts 253°
2026-05-08 18:30 38.15846 24.31183 8062 ft 193 kts 253°
2026-05-08 18:30 38.15396 24.29437 7783 ft 224 kts 253°
2026-05-08 18:30 38.14912 24.27547 7406 ft 225 kts 253°
2026-05-08 18:30 38.14438 24.25659 7029 ft 223 kts 253°
2026-05-08 18:31 38.13979 24.23795 6640 ft 219 kts 254°
2026-05-08 18:31 38.13523 24.21961 6226 ft 218 kts 253°
2026-05-08 18:31 38.13073 24.20103 5727 ft 220 kts 253°
2026-05-08 18:31 38.12632 24.18250 5224 ft 216 kts 252°
2026-05-08 18:32 38.12231 24.16472 4720 ft 204 kts 253°
2026-05-08 18:32 38.11864 24.14766 4219 ft 195 kts 252°
2026-05-08 18:32 38.11547 24.13184 4052 ft 183 kts 253°
2026-05-08 18:32 38.11243 24.11601 4015 ft 184 kts 253°
2026-05-08 18:33 38.10831 24.10100 3997 ft 178 kts 250°
2026-05-08 18:33 38.10435 24.08593 3977 ft 180 kts 238°
2026-05-08 18:33 38.09488 24.07565 4025 ft 183 kts 214°
2026-05-08 18:33 38.08426 24.06675 4015 ft 180 kts 214°
2026-05-08 18:34 38.07354 24.05920 4002 ft 177 kts 210°
2026-05-08 18:34 38.06238 24.05177 3816 ft 184 kts 211°
2026-05-08 18:34 38.05148 24.04326 3447 ft 184 kts 217°
2026-05-08 18:34 38.04151 24.03361 3207 ft 174 kts 219°
2026-05-08 18:35 38.03245 24.02395 2935 ft 167 kts 221°
2026-05-08 18:35 38.02374 24.01436 2620 ft 163 kts 218°
2026-05-08 18:35 38.01464 24.00579 2301 ft 164 kts 216°
2026-05-08 18:35 38.00582 23.99780 2124 ft 143 kts 215°
2026-05-08 18:36 37.99779 23.99101 1828 ft 136 kts 214°
2026-05-08 18:36 37.99007 23.98385 1550 ft 143 kts 217°
2026-05-08 18:36 37.98188 23.97522 1553 ft 154 kts 220°
2026-05-08 18:36 37.97330 23.96727 1355 ft 148 kts 210°
2026-05-08 18:37 37.96494 23.96058 1139 ft 138 kts 220°
2026-05-08 18:37 37.95729 23.95303 789 ft 141 kts 217°
2026-05-08 18:37 37.94941 23.94546 486 ft 140 kts 218°
2026-05-08 18:37 37.94174 23.93822 300 ft 129 kts 218°
2026-05-08 18:38 37.93562 23.93234 279 ft 75 kts 217°
2026-05-08 18:38 37.93336 23.93019 276 ft 30 kts 214°
2026-05-08 18:38 37.93158 23.92872 272 ft 33 kts 201°
2026-05-08 18:38 37.92951 23.92817 272 ft 15 kts 187°
2026-05-08 18:39 37.92891 23.92807 271 ft 9 kts 186°
2026-05-08 18:39 37.92887 23.92807 271 ft 0 kts 186°
2026-05-08 18:40 37.92870 23.92809 274 ft 9 kts 171°
2026-05-08 18:40 37.92857 23.92830 271 ft 2 kts 78°
2026-05-08 18:41 37.92910 23.92887 272 ft 18 kts 38°
2026-05-08 18:41 37.93010 23.92986 277 ft 18 kts 38°
2026-05-08 18:41 37.93108 23.93078 275 ft 17 kts 33°
2026-05-08 18:41 37.93238 23.93200 277 ft 27 kts 36°
2026-05-08 18:42 37.93387 23.93341 278 ft 26 kts 37°
2026-05-08 18:42 37.93413 23.93463 279 ft 16 kts 122°
2026-05-08 18:42 37.93347 23.93576 279 ft 19 kts 126°
2026-05-08 18:42 37.93249 23.93740 281 ft 24 kts 127°
2026-05-08 18:43 37.93166 23.93879 283 ft 17 kts 127°
2026-05-08 18:43 37.93099 23.94002 284 ft 17 kts 109°
2026-05-08 18:43 37.93161 23.94112 288 ft 16 kts 37°
2026-05-08 18:43 37.93249 23.94197 287 ft 17 kts 36°
2026-05-08 18:44 37.93265 23.94314 285 ft 11 kts 143°
2026-05-08 18:44 37.93250 23.94318 285 ft 1 kts 182°
2026-05-08 18:44 37.93206 23.94281 285 ft 6 kts 212°